Hauptseite
METAR-TAF:

METAR-TAF

Flughäfen :

Villamontes, Bolivien

Breite: 21-15S, Länge: 063-27W, Höhe: 398 m

Beobachtung

Neuester Wetterbericht von vor 7 Stunden und 40 Minuten, um 20:00 UTC
Wind 12 kt aus Nord, Böen bis zu 25 kt
Temperatur 38°C
Luftfeuchtigkeit 33%
Luftdruck 1000 hPa
Sichtweite 10 km oder mehr

METAR: SLVM 132000Z 36012G25KT 9999 NSC 38/19 Q1000

Zeit: 23:40 (03:40 UTC)


TAF: fehlend

Wetterbeobachtungen und Prognosen von mehr als 4000 Flughäfen (METAR und TAF Bericht).

Die verfügbaren Stationen werden durch gelbe und rote Markierungen auf der Karte dargestellt.

Führen Sie die Maus auf sie, um den Namen der Station zu sehen.

Darauf klicken, um die Beobachtung von Wetterbeobachtungen und Prognosen zu sehen.

Um die Karte zu ändern : klicken Sie auf den grünen Tasten mit einem schwarzen Kreuz Zum Vergrößern, auf den grünen Button mit einem Gedankenstrich zu verkleinern, oder auf die grünen Pfeile für benachbarte Karten.


METAR-TAF: